Regional Weather Roundup
Issued by NWS Burlington, VT

Home | Current Version | Previous Version | Text Only | Print | Product List | Glossary On
Versions: 1 2 3 4 5 6 7 8 9 10 11 12 13 14 15 16 17 18 19 20 21 22 23 24 25 26 27 28 29 30 31 32 33 34 35 36 37 38 39 40 41 42 43 44 45 46 47 48 49 50
000
ASUS41 KBTV 201730
RWRBTV
VERMONT REGIONAL WEATHER ROUNDUP
NATIONAL WEATHER SERVICE BURLINGTON VT
1200 PM EST SAT DEC 20 2014

NOTE: "FAIR" INDICATES FEW OR NO CLOUDS BELOW 12,000 FEET WITH NO
SIGNIFICANT WEATHER AND/OR OBSTRUCTIONS TO VISIBILITY.

* THESE REPORTS ARE NOT UNDER NWS QUALITY CONTROL AND/OR DO NOT
  REPORT WEATHER SUCH AS PRECIPITATION AND FOG.

VTZ001>019-201800-
_____VERMONT_____


CITY           SKY/WX    TMP DP  RH WIND       PRES   REMARKS
BURLINGTON     MOSUNNY   24  14  65 CALM      30.30F
MONTPELIER     SUNNY     19  14  81 CALM      30.27F
MORRISVILLE    SUNNY     22  14  71 CALM      30.28F
ST. JOHNSBURY*   N/A     23  14  68 MISG      30.26F
LYNDONVILLE*   FAIR      22  13  65 CALM      30.24F
MIDDLEBURY*    FAIR      24  15  69 CALM      30.27F
RUTLAND*       SUNNY     25  16  68 NE3       30.24F
SPRINGFIELD    SUNNY     27  15  61 CALM      30.27F
HIGHGATE*      FAIR      21  16  80 CALM      30.31F
NEWPORT*       FAIR      16  13  86 CALM      30.26F
BENNINGTON     SUNNY     26  17  68 CALM      30.25F
SUTTON*          N/A     23 N/A N/A MISG        N/A
GALLUP MILLS*    N/A     27 N/A N/A MISG        N/A
UNION VILLAGE*   N/A     25 N/A N/A MISG        N/A
MT. MANSFIELD*   N/A     28 N/A N/A CALM        N/A

_____LAKE CHAMPLAIN_____


CITY           SKY/WX    TMP DP  RH WIND       PRES   REMARKS
BURTON ISLAND*   N/A     25  19  80 E1          N/A
COLCHESTER RF*   N/A     23  19  86 E6          N/A

$$

NYZ007-026>031-035-052-083-201800-
_____NORTHERN NEW YORK_____


CITY           SKY/WX    TMP DP  RH WIND       PRES   REMARKS
PLATTSBURGH    CLOUDY    21  16  81 S3        30.31F
SARANAC LAKE   SUNNY     19  15  84 CALM      30.18F
MASSENA        FLURRIES  21  17  84 N5        30.33F
OGDENSBURG*    SUNNY     25  18  74 CALM      30.31F
POTSDAM*       SUNNY     19  16  86 CALM      30.30F
STARK FALLS*     N/A     27 N/A N/A CALM        N/A
WATERTOWN      SUNNY     27  16  63 NE5       30.30F
FT DRUM        SUNNY     21  13  71 E1        30.27F
ALBANY         PTSUNNY   28  17  63 N3        30.30F
GLENS FALLS    MOSUNNY   26  18  71 CALM      30.29F

$$
NHZ002-005-011-201800-
_____NEW HAMPSHIRE_____


CITY           SKY/WX    TMP DP  RH WIND       PRES   REMARKS
LEBANON        SUNNY     25  16  68 CALM      30.26F
KEENE          SUNNY     30  18  59 CALM      30.25F
MT WASHINGTON  MOSUNNY   25   5  42 SE15        N/A  WCI  12
PLYMOUTH       FAIR      31  22  68 E3        30.26F
WHITEFIELD     SUNNY     22  16  78 CALM      30.24F

$$

_____REGIONAL QUEBEC LOCATIONS_____


CITY           SKY/WX    TMP DP  RH WIND       PRES   REMARKS
MONTREAL       MOSUNNY   18  10  73 N9        30.34F
QUEBEC CITY    CLOUDY    14  10  85 CALM      30.36  FOG
SHERBROOKE     CLOUDY    14  12  92 CALM      30.28F

_____REGIONAL ONTARIO LOCATIONS_____


CITY           SKY/WX    TMP DP  RH WIND       PRES   REMARKS
OTTAWA         MOSUNNY   18  12  79 VRB2      30.32

______KEY______
VSB  - VISIBILITY IN MILES
WCI  - WIND CHILL INDEX
HX   - HEAT INDEX
$$



USA.gov is the U.S. government's official web portal to all federal, state and local government web resources and services.